Flag for Spain Weather past 2 weeks in Almería, Spain

Now
76 °F

Mild.


Feels Like: 78 °F
Forecast: 67 / 82 °F
Wind: 9 mph from Northeast

Location: Almeria / Aeropuerto

Current Time: Oct 2, 2014 at 7:15:13 AM

Latest Report: Oct 2, 2014 at 6:00 AM


Visibility: N/A

Pressure: 30.15 "Hg

Humidity: 61%

Dew point: 61 °F

Location of AlmeríaLocation

Historic Weather in Almería — Graph

°F

Almería temperature yesterday

Maximum temperature yesterday: 82 °F (at 4:00 PM)
Minimum temperature yesterday: 71 °F (at 6:00 AM)
Average temperature yesterday: 77 °F

Past Weeks' High & Low Weather Summary

 TemperatureHumidityPressure
High88 °F (Sep 21, 3:00 PM)88% (Sep 24, 8:00 AM)30.22 "Hg (Sep 24, 8:00 AM)
Low66 °F (Sep 18, 8:00 AM)32% (Sep 21, 3:00 PM)29.73 "Hg (Sep 17, 7:00 PM)
Average75 °F68%30.01 "Hg
* Reported Sep 17 6:00 AM — Oct 2 6:00 AM, Almería, Weather by CustomWeather, © 2014

Note: Actual official high and low records may vary slightly from our data, if they occured in-between our weather recording intervals... More about our weather records

Advertising

Almería weather history for previous 24 hours

 ConditionsComfort  
Time TempWeatherWind HumidityBarometerVisibility
6:00 AM
Oct 2
76 °FMild.9 mph61%30.15 "HgN/A
5:00 AM76 °FPassing clouds.15 mph62%30.14 "Hg16 mi
4:00 AM76 °FMild.17 mph66%30.14 "HgN/A
3:00 AM76 °FMild.16 mph68%30.15 "HgN/A
2:00 AM76 °FMild.18 mph68%30.14 "HgN/A
1:00 AM77 °FMild.17 mph66%30.15 "HgN/A
12:00 AM77 °FWarm.14 mph66%30.16 "HgN/A
11:00 PM
Oct 1
77 °FMild.20 mph68%30.15 "HgN/A
10:00 PM76 °FMild.20 mph70%30.14 "HgN/A
9:00 PM77 °FWarm.21 mph68%30.13 "HgN/A
8:00 PM78 °FPassing clouds.21 mph67%30.12 "Hg25 mi
7:00 PM79 °FWarm.21 mph65%30.12 "HgN/A
6:00 PM82 °FWarm.23 mph61%30.11 "HgN/A
5:00 PM82 °FScattered clouds.24 mph59%30.12 "Hg25 mi
4:00 PM82 °FWarm.25 mph59%30.14 "HgN/A
3:00 PM82 °FWarm.21 mph61%30.16 "HgN/A
2:00 PM81 °FPartly sunny.21 mph64%30.18 "Hg25 mi
1:00 PM78 °FWarm.18 mph71%30.18 "HgN/A
12:00 PM77 °FMild.9 mph72%30.19 "HgN/A
11:00 AM76 °FOvercast.12 mph72%30.19 "Hg31 mi
10:00 AM74 °FMild.8 mph75%30.18 "HgN/A
9:00 AM71 °FMild.No wind85%30.17 "HgN/A
8:00 AM72 °FOvercast.7 mph79%30.16 "Hg31 mi
7:00 AM71 °FFog.12 mph88%30.15 "HgN/A
Weather by CustomWeather, © 2014

See weather overviewHow to use our weather pages